TimeEST,TemperatureF,Dew PointF,Humidity,Sea Level PressureIn,VisibilityMPH,Wind Direction,Wind SpeedMPH,Gust SpeedMPH,PrecipitationIn,Events,Conditions,WindDirDegrees,DateUTC
12:54 AM,27.0,24.1,89,30.27,10.0,Calm,Calm,-,N/A,,Clear,0,2013-12-12 05:54:00
1:54 AM,26.1,21.9,84,30.28,9.0,WNW,3.5,-,N/A,,Clear,300,2013-12-12 06:54:00
2:54 AM,26.1,21.9,84,30.30,10.0,WNW,3.5,-,N/A,,Clear,300,2013-12-12 07:54:00
3:54 AM,28.0,24.1,85,30.30,10.0,Calm,Calm,-,N/A,,Clear,0,2013-12-12 08:54:00
4:54 AM,27.0,25.0,92,30.31,10.0,Calm,Calm,-,N/A,,Clear,0,2013-12-12 09:54:00
5:54 AM,27.0,24.1,89,30.33,10.0,Calm,Calm,-,N/A,,Clear,0,2013-12-12 10:54:00
6:54 AM,28.9,19.9,69,30.37,10.0,North,5.8,-,N/A,,Clear,360,2013-12-12 11:54:00
7:54 AM,28.9,19.9,69,30.40,10.0,Variable,5.8,-,N/A,,Clear,0,2013-12-12 12:54:00
8:54 AM,30.0,19.9,66,30.43,10.0,North,5.8,-,N/A,,Clear,350,2013-12-12 13:54:00
9:54 AM,30.0,17.1,59,30.45,10.0,Variable,6.9,-,N/A,,Clear,0,2013-12-12 14:54:00
10:54 AM,32.0,16.0,52,30.44,10.0,Variable,3.5,-,N/A,,Clear,0,2013-12-12 15:54:00
11:54 AM,32.0,15.1,50,30.41,10.0,Calm,Calm,-,N/A,,Clear,0,2013-12-12 16:54:00
12:54 PM,35.1,14.0,42,30.38,10.0,Variable,4.6,-,N/A,,Clear,0,2013-12-12 17:54:00
1:54 PM,35.1,12.9,40,30.37,10.0,NW,8.1,-,N/A,,Clear,310,2013-12-12 18:54:00
2:54 PM,36.0,12.9,39,30.35,10.0,West,3.5,-,N/A,,Clear,280,2013-12-12 19:54:00
3:54 PM,36.0,14.0,41,30.35,10.0,West,4.6,-,N/A,,Clear,280,2013-12-12 20:54:00
4:54 PM,30.9,21.9,69,30.36,10.0,Calm,Calm,-,N/A,,Clear,0,2013-12-12 21:54:00
5:54 PM,28.0,21.0,75,30.37,10.0,Calm,Calm,-,N/A,,Clear,0,2013-12-12 22:54:00
6:54 PM,26.1,21.0,81,30.38,10.0,Calm,Calm,-,N/A,,Clear,0,2013-12-12 23:54:00
7:54 PM,25.0,19.9,81,30.38,10.0,Calm,Calm,-,N/A,,Clear,0,2013-12-13 00:54:00
8:54 PM,24.1,21.9,91,30.36,9.0,Calm,Calm,-,N/A,,Clear,0,2013-12-13 01:54:00
9:54 PM,24.1,19.9,84,30.35,10.0,Calm,Calm,-,N/A,,Clear,0,2013-12-13 02:54:00
10:54 PM,21.9,19.0,89,30.34,10.0,Calm,Calm,-,N/A,,Clear,0,2013-12-13 03:54:00
11:54 PM,26.1,12.9,58,30.31,10.0,SW,4.6,-,N/A,,Clear,230,2013-12-13 04:54:00